User: anonymous   Login
Location: Unspecified
(0.0000°N, 0.0000°E)
Time: 06:54:54
(UTC+00:00)
Language:

ONEWEB-0391 - Orbit

View from above orbital plane
View from above orbital plane
View from above satellite
View from above satellite

Ground track
Ground track

The orbit is defined by the following mean orbital elements,

1 50471U          26145.57310786 +.00000000 +00000-0 -31739-4 0 00003
2 50471  87.9154  10.3759 0002426 100.7188 259.4217 13.17650654    05
Epoch (UTC): 25 May 2026 13:45:16
Eccentricity: 0.0002426
inclination: 87.9154°
perigee height: 1192 km
apogee height: 1196 km
right ascension of ascending node: 10.3759°
argument of perigee: 100.7188°
revolutions per day: 13.17650654
mean anomaly at epoch: 259.4217°

The dashed part of the orbit path shows where the satellite is in the earth's shadow,  

DLR